FW4110 Weather Reports


time (UTC)temp
F
wind
direction
speed
knots
gust
knots
rain 1hr
in
rain 24hr
in
rain mn
in
humidity
%
barometer
mb
20260510084510 59 249 0.0 0.0 0.00 0.06 0.06 92 1016.6
20260510083007 60 343 0.0 0.0 0.00 0.06 0.06 92 1016.3
20260510081507 60 253 0.0 0.0 0.00 0.06 0.06 92 1016.2
20260510080000 60 324 0.0 0.0 0.01 0.06 0.06 91 1015.8
20260510074558 60 185 0.0 0.0 0.01 0.06 0.06 91 1015.8
20260510073059 60 336 0.0 0.0 0.01 0.06 0.06 89 1015.8
20260510071551 60 355 0.0 0.0 0.01 0.06 0.06 86 1015.5
20260510064549 61 328 0.0 3.5 0.05 0.05 0.05 70 1015.9
20260510063044 61 299 0.0 0.0 0.05 0.05 0.05 56 1015.6
20260510061541 61 44 3.5 7.8 0.05 0.05 0.05 55 1014.6
20260510060044 61 147 0.0 0.0 0.01 0.01 0.01 62 1015.2
20260510054532 62 350 0.0 0.9 0.00 0.00 0.00 70 1015.3
20260510053028 62 229 0.9 2.6 0.00 0.00 0.00 77 1014.3
20260510051525 62 146 0.0 0.0 0.00 0.00 0.00 80 1014.5
20260510050027 63 121 0.0 0.9 0.00 0.00 0.00 83 1014.5
20260510044521 63 28 0.9 4.3 0.00 0.01 0.00 85 1015.1
20260510043030 64 66 2.6 9.6 0.00 0.01 0.00 85 1015.0
20260510041521 65 48 1.7 6.1 0.00 0.01 0.00 86 1014.7
20260510040012 65 64 3.5 12.2 0.00 0.01 0.00 85 1014.6
20260510034508 67 14 5.2 13.9 0.00 0.24 0.00 84 1014.5
20260510033005 68 355 5.2 13.9 0.00 0.24 0.00 82 1014.2
20260510031605 69 162 0.0 0.9 0.00 0.24 0.00 76 1013.0
20260510024557 70 158 0.9 1.7 0.00 0.48 0.00 74 1012.4
20260510023056 70 157 0.9 1.7 0.00 0.48 0.00 74 1012.0
20260510021642 69 168 0.0 1.7 0.00 0.48 0.00 74 1012.0
20260510020059 69 161 0.0 0.9 0.00 0.48 0.00 75 1011.7
20260510014559 69 165 0.0 1.7 0.00 0.48 0.00 75 1011.4
20260510013102 69 172 0.0 0.9 0.00 0.48 0.00 75 1011.3
20260510011554 70 170 0.0 0.9 0.00 0.48 0.00 73 1011.3
20260510010058 71 242 0.0 0.9 0.00 0.48 0.00 71 1011.1
20260510004551 72 271 0.0 0.9 0.00 0.50 0.00 72 1011.1
20260510003050 73 272 0.0 0.0 0.00 0.50 0.00 70 1010.7
20260510001550 75 272 0.0 0.0 0.00 0.50 0.00 67 1010.8
20260510000051 78 272 0.0 0.0 0.00 0.50 0.00 63 1010.7
20260509234549 80 272 0.0 0.9 0.00 0.50 0.00 58 1010.7
20260509233049 80 339 0.0 3.5 0.00 0.50 0.00 58 1010.7
20260509231550 80 175 0.9 6.1 0.00 0.50 0.00 56 1010.6
20260509230050 81 8 1.7 5.2 0.00 0.50 0.00 56 1010.6
20260509224547 81 318 0.9 6.1 0.00 0.50 0.00 56 1010.5
20260509223051 82 358 2.6 5.2 0.00 0.50 0.00 57 1010.5
20260509221545 82 275 2.6 7.0 0.00 0.50 0.00 58 1010.6
20260509220048 82 340 1.7 10.4 0.00 0.50 0.00 57 1010.6
20260509214545 82 336 1.7 7.0 0.00 0.50 0.00 55 1010.4
20260509213050 81 334 2.6 7.8 0.00 0.50 0.00 58 1010.4
20260509211539 81 311 3.5 9.6 0.00 0.50 0.00 59 1010.5
20260509210044 81 24 2.6 8.7 0.00 0.50 0.00 59 1010.7
20260509204539 81 360 3.5 7.8 0.00 0.50 0.00 58 1010.9
20260509203036 80 334 3.5 10.4 0.00 0.50 0.00 56 1011.0
20260509201538 80 344 2.6 10.4 0.00 0.50 0.00 60 1011.1
20260509200034 80 328 1.7 11.3 0.00 0.50 0.00 61 1011.2
20260509194544 79 55 3.5 12.2 0.00 0.50 0.00 59 1011.1
20260509193033 79 333 1.7 9.6 0.00 0.50 0.00 64 1011.2
20260509191528 78 357 5.2 10.4 0.00 0.50 0.00 62 1011.3
20260509190028 78 341 4.3 12.2 0.00 0.50 0.00 63 1011.2
20260509184528 78 343 4.3 13.9 0.00 0.50 0.00 62 1011.2
20260509183026 78 47 3.5 10.4 0.00 0.50 0.00 65 1011.4
20260509181523 77 325 4.3 11.3 0.00 0.50 0.00 64 1011.4
20260509180022 77 351 1.7 7.0 0.00 0.50 0.00 68 1011.5
20260509174518 76 38 3.5 10.4 0.00 0.50 0.00 69 1011.7
20260509173022 75 339 4.3 11.3 0.00 0.50 0.00 68 1011.9
20260509171509 75 334 2.6 8.7 0.00 0.50 0.00 71 1012.3
20260509170005 74 166 1.7 6.1 0.00 0.50 0.00 70 1012.3
20260509164600 73 262 1.7 8.7 0.00 0.50 0.00 65 1012.4
20260509164501 73 192 2.6 8.7 0.00 0.50 0.00 65 1012.4
20260509163103 72 280 1.7 7.8 0.00 0.50 0.00 50 1012.4
20260509161602 71 5 0.9 7.0 0.00 0.50 0.00 60 1012.5
20260509160051 69 239 1.7 5.2 0.00 0.50 0.00 63 1012.5
20260509154550 68 337 0.9 7.0 0.00 0.50 0.00 67 1012.4
20260509153055 67 294 0.9 4.3 0.00 0.50 0.00 74 1012.3
20260509151537 65 349 0.9 6.1 0.00 0.50 0.00 78 1012.2
20260509150035 64 283 0.0 4.3 0.00 0.50 0.00 84 1012.2
20260509144533 63 135 0.0 4.3 0.00 0.50 0.00 92 1012.2
20260509143029 61 269 0.0 4.3 0.00 0.50 0.00 94 1012.2
20260509141534 60 208 0.9 5.2 0.00 0.50 0.00 93 1012.2
20260509140023 59 199 0.0 3.5 0.00 0.50 0.00 94 1012.2
20260509134520 58 324 0.0 6.1 0.00 0.50 0.00 93 1012.0
20260509133021 58 206 0.9 3.5 0.00 0.50 0.00 93 1011.9
20260509131519 57 287 0.9 4.3 0.00 0.50 0.00 93 1011.7
20260509130016 56 317 0.9 3.5 0.00 0.50 0.00 93 1011.6
20260509124517 56 315 0.0 4.3 0.00 0.50 0.00 93 1011.8
20260509123015 56 268 0.0 4.3 0.00 0.50 0.00 93 1011.8
20260509121513 56 301 0.0 3.5 0.00 0.50 0.00 93 1011.7
20260509120012 56 187 0.0 5.2 0.00 0.50 0.00 93 1011.9
20260509114509 0 0.0 0.0 0.00 0.50 0.00 1011.7
20260509113004 0 0.0 0.0 0.00 0.50 0.00 1011.4
20260509111602 0 0.0 0.0 0.00 0.50 0.00 1011.0
20260509110055 0 0.0 0.0 0.00 0.50 0.00 1011.2
20260509104554 0 0.0 0.0 0.00 0.50 0.00 1011.3
20260509103055 0 0.0 0.0 0.00 0.50 0.00 1011.2
20260509101544 0 172 0.0 6.1 0.00 0.50 0.00 1010.9
20260509100042 57 214 0.9 4.3 0.00 0.50 0.00 93 1011.1
20260509094553 57 252 0.0 3.5 0.00 0.50 0.00 93 1011.1
20260509093042 57 138 0.9 4.3 0.00 0.50 0.00 93 1011.0
20260509091547 56 286 0.9 5.2 0.00 0.50 0.00 93 1010.9
20260509090048 57 280 0.0 4.3 0.00 0.50 0.00 93 1010.6